Location: Les Moulins
(46.4625°N, 7.1046°E)
Time: 03:44:06
(UTC+00:00)

Daily predictions for brighter satellites

Satellite Brightness Start Highest point End
(mag) Time Altitude Azimuth Time Altitude Azimuth Time Altitude Azimuth
ATLAS CENTAUR R/B 4.2 00:07:35 10° WSW 00:13:27 67° NNW 00:29:35 10° ENE
Cosmos 1825 2.7 00:13:02 41° SE 00:13:45 47° E 00:17:24 10° NNE
DELTA 2 R/B (1) 4.4 00:16:57 30° SSE 00:16:57 30° SSE 00:21:22 10° ESE
Cosmos 540 Rocket 4.2 00:15:11 29° SSE 00:17:01 40° ESE 00:21:46 10° NE
Cosmos 1408 2.5 00:19:18 61° SSW 00:19:51 80° W 00:23:33 10° N
Cosmos 990 Rocket 3.9 00:15:13 10° NNW 00:20:25 81° WSW 00:22:37 35° SSE
SL-16 R/B 3.1 00:19:56 19° WSW 00:23:34 43° NW 00:28:59 10° NNE
Cosmos 405 Rocket 2.6 00:23:36 57° SSE 00:24:14 74° E 00:27:55 10° NNE
Cosmos 1242 Rocket 4.2 00:21:12 10° N 00:24:23 29° ENE 00:26:09 19° ESE
Cosmos 841 Rocket 4.3 00:23:03 28° SSE 00:25:03 40° ESE 00:29:51 10° NE
Cosmos 2058 3.4 00:24:22 37° SE 00:25:34 50° E 00:29:33 10° NNE
Cosmos 1656 Rocket 3.9 00:20:24 10° NNW 00:26:07 71° ENE 00:30:16 19° SE
USA 229 DEB 3.6 00:22:35 28° SW 00:26:13 88° NW 00:33:07 10° NE
USA 229 3.6 00:22:43 29° SW 00:26:19 89° WNW 00:33:14 10° NE
Cosmos 2221 3.2 00:22:12 10° N 00:26:24 49° ENE 00:28:24 27° SE
Meteor 2-13 Rocket 4.4 00:23:59 33° S 00:26:58 88° W 00:33:11 10° N
Cosmos 2237 Rocket 4.4 00:23:20 10° W 00:27:13 19° NW 00:31:08 10° N
X-37B 1.5 00:28:46 37° ESE 00:28:46 37° ESE 00:30:53 10° E
Cosmos 1898 Rocket 3.4 00:28:29 10° NNW 00:33:44 78° WSW 00:36:10 32° S
Cosmos 1937 Rocket 3.6 00:28:41 10° NNW 00:34:03 79° ENE 00:37:19 24° SSE
Nadezhda 4 Rocket 4.2 00:30:48 28° SSE 00:34:07 65° E 00:40:11 10° NNE
NOSS 3-1 (C) 3.9 00:31:11 19° WSW 00:35:06 53° NW 00:41:25 10° NE
Cosmos 2369 Rocket 2.2 00:30:32 10° NNW 00:36:13 66° WSW 00:38:58 31° S
YAOGAN 11 4.0 00:35:34 38° S 00:37:16 84° WSW 00:41:48 10° NNW
Cosmos 1356 3.9 00:37:29 42° WSW 00:37:57 45° WNW 00:41:14 10° N
Aureole 3 Rocket 4.3 00:34:28 10° N 00:38:09 37° ENE 00:41:59 15° SE
USA 307 4.0 00:38:07 27° SE 00:38:25 28° SE 00:42:03 10° ENE
SJ 16-02 2.9 00:36:25 10° NW 00:39:39 20° W 00:40:01 20° WSW
CREW DRAGON DEMO-1 DEB 3.3 00:40:05 45° N 00:40:05 45° N 00:42:10 10° ENE
USA 215 4.4 00:39:25 10° NE 00:45:31 43° NNW 00:51:36 10° W
NOSS 3-1 (A) 3.4 00:42:41 26° SW 00:45:55 71° NW 00:52:19 10° NE
ATLAS 5 CENTAUR R/B 2.6 00:48:04 24° SE 00:49:01 27° ESE 00:52:38 10° ENE
Cosmos 2263 4.2 00:44:14 10° NNW 00:49:53 69° WSW 00:53:06 26° S
CZ-4 R/B 3.7 00:46:50 10° NNE 00:51:32 79° WNW 00:53:33 34° SSW
Helios 1B rocket 3.7 00:48:30 10° NNE 00:52:12 32° E 00:54:08 21° SE
USA 308 3.6 00:53:27 33° SSE 00:54:15 36° SE 00:58:09 10° ENE
Cosmos 1633 3.6 00:53:22 27° SE 00:54:38 37° E 00:57:55 10° NNE
ADEOS Rocket 4.3 00:48:29 10° SE 00:55:13 43° ENE 01:01:21 10° N
Cosmos 1932 4.4 00:49:08 10° NW 00:55:19 68° WSW 01:00:03 18° SSE
Meteor 2-2 Rocket 4.4 00:50:42 10° NNW 00:56:42 70° W 01:00:07 27° S
CZ-3B R/B 4.2 00:47:56 10° WNW 00:57:11 37° N 01:00:25 10° ENE
UNK 4.3 00:54:25 17° SE 00:57:49 56° ENE 01:02:22 10° N
Helios 1A 3.2 01:00:06 37° SSW 01:01:24 52° W 01:05:31 10° NNW
Cosmos 1606 2.7 00:58:38 10° N 01:02:30 75° E 01:04:12 31° SSE
Cosmos 1570 Rocket 4.3 01:01:44 27° S 01:04:28 59° ESE 01:09:37 10° NNE
SL-16 R/B 2.6 00:59:52 15° SSE 01:05:06 79° ENE 01:11:18 10° NNW
Cosmos 372 Rocket 4.0 01:03:45 10° NNW 01:09:02 89° NE 01:13:10 17° SSE
USA 305 3.1 01:10:32 34° SSW 01:12:00 52° SE 01:16:09 10° ENE
USA 290 2.8 01:11:15 35° SSE 01:12:08 46° ESE 01:15:14 10° NE
CZ-4C R/B 4.4 01:13:48 10° ESE 01:14:54 11° ESE 01:16:02 10° E
Cosmos 1092 Rocket 4.0 01:11:05 23° S 01:15:08 80° E 01:21:18 10° N
Lacrosse 4 Rocket 1.8 01:11:10 10° NNW 01:15:15 62° NE 01:19:15 10° SE
Cosmos 2098 Rocket 3.5 01:15:09 27° SSW 01:18:02 63° W 01:22:28 10° N
Cosmos 1763 Rocket 4.5 01:15:44 19° WSW 01:18:47 36° WNW 01:23:32 10° N
BREEZE-M R/B 3.0 01:18:11 31° SSW 01:19:26 45° SE 01:24:07 10° ENE
Cosmos 2208 Rocket 4.3 01:16:33 24° S 01:19:48 66° ESE 01:25:13 10° NNE
USA 267 4.3 01:19:19 22° SW 01:20:23 23° SW 01:25:21 10° WNW
Meteor 2-19 Rocket 4.4 01:16:27 23° S 01:20:31 87° E 01:26:41 10° N
Resurs 1-4 Rocket 2.1 01:15:44 10° NNE 01:21:06 89° E 01:24:24 24° SSW
Cosmos 1437 Rocket 3.7 01:17:57 10° NNW 01:21:23 31° W 01:22:18 27° WSW
OE (NEXTSAT) 4.2 01:22:34 24° WSW 01:24:30 80° S 01:27:56 10° E
Meteor 1-29 4.2 01:21:53 10° NNE 01:25:01 33° E 01:26:57 18° SSE
SL-4 R/B 3.3 01:22:36 10° WNW 01:26:05 36° N 01:29:23 10° ENE
Cosmos 1943 Rocket 4.0 01:26:23 10° WNW 01:28:35 12° W 01:29:32 12° WSW
Cosmos 1842 Rocket 4.3 01:27:31 10° NNW 01:31:29 35° W 01:33:14 25° SW
NOSS 2-2 (D) 3.0 01:30:21 33° SSW 01:31:45 70° SE 01:35:24 10° NE
NPP 3.6 01:26:51 10° NNE 01:32:17 88° ESE 01:35:57 21° SSW
ADEOS II 2.6 01:27:33 10° NNE 01:32:43 54° E 01:36:50 16° S
USA 306 2.8 01:32:05 26° SW 01:34:22 74° SE 01:38:37 10° ENE
Cosmos 921 Rocket 3.2 01:32:38 26° SW 01:34:47 57° WNW 01:38:56 10° NNE
Lacrosse 5 rocket 3.6 01:32:09 10° NW 01:35:09 24° NNE 01:38:12 10° ENE
Meteor 2-3 Rocket 4.1 01:31:29 15° S 01:36:00 58° E 01:41:28 10° NNE
FALCON 9 DEB 2.9 01:33:28 10° WNW 01:36:51 68° SW 01:40:13 10° SE
Cosmos 1943 3.9 01:33:25 18° WSW 01:37:20 44° NW 01:42:45 10° NNE
CZ-2D R/B 2.2 01:34:36 10° N 01:39:47 66° WNW 01:43:15 21° SSW
IDEFIX/ARIANE 42P 3.6 01:42:09 10° NNE 01:47:05 40° E 01:51:57 10° SSE
Cosmos 2151 2.9 01:44:56 22° SSW 01:47:33 77° W 01:51:47 10° N
Cosmos 1825 4.4 01:47:48 11° W 01:49:31 14° WNW 01:51:34 10° NW
EXPRESS MD2 4.5 01:41:04 10° WSW 01:50:52 90° S 01:55:25 10° ENE
AQUA 3.8 01:47:06 10° N 01:51:53 73° WNW 01:55:17 19° SSW
Cosmos 1076 Rocket 4.2 01:49:45 21° SW 01:52:06 39° WNW 01:56:06 10° N
Cosmos 1437 3.6 01:53:00 10° NW 01:55:21 25° W 01:55:51 23° WSW
Meteor 1-26 Rocket 4.4 01:49:53 10° N 01:55:45 83° ENE 02:01:45 10° SSE
Cosmos 1242 Rocket 4.2 01:56:23 10° NW 01:59:00 19° W 02:00:05 17° WSW
DELTA 2 R/B (1) 4.0 01:57:41 13° WSW 02:02:20 42° S 02:07:32 10° ESE
Cosmos 2221 4.3 02:00:52 10° NW 02:03:31 16° W 02:05:13 13° WSW
X-37B 0.7 02:01:10 10° W 02:04:15 50° SSW 02:07:21 10° ESE
CBERS-1 4.3 02:01:19 10° NNE 02:06:28 67° ESE 02:11:26 11° S
BREEZE-M DEB (TANK) 1.9 02:04:09 10° WNW 02:06:31 58° NNE 02:09:01 10° E
IRS-1D 3.5 02:01:32 10° NNE 02:06:42 83° ESE 02:11:14 13° SSW
Cosmos 1812 4.0 02:06:35 10° N 02:10:16 41° ENE 02:13:54 10° SSE
Cosmos 1553 Rocket 4.0 02:04:18 10° N 02:10:37 77° W 02:16:47 10° S
NOSS 2-2 (E) 4.1 02:08:02 14° WSW 02:10:43 38° NW 02:14:24 10° NNE
Cosmos 2292 Rocket 2.6 02:09:53 19° SSW 02:11:48 64° W 02:14:46 10° N
FALCON 9 DEB 3.2 02:12:40 10° WNW 02:15:48 68° NNE 02:18:55 10° ESE
S3M 4.1 02:10:30 10° N 02:16:41 82° E 02:22:55 10° S
GPS 2-04 Rocket1 4.3 02:15:43 16° SSW 02:16:45 17° S 02:19:20 10° SE
Cosmos 1782 2.8 02:13:12 10° NNW 02:17:13 75° W 02:21:12 10° S
USA 281 3.3 02:10:56 10° SSE 02:17:31 85° ENE 02:24:07 10° NNW
Meteor 2-14 Rocket 4.5 02:11:39 10° S 02:17:42 89° W 02:23:53 10° N
USA 307 3.2 02:14:12 12° WSW 02:18:08 65° NNW 02:22:22 10° NE
Cosmos 1271 Rocket 2.8 02:15:24 10° N 02:19:09 75° ENE 02:22:54 10° SSE
MSX 4.4 02:13:50 10° NNE 02:19:32 57° E 02:25:10 10° S
NOSS 2-2 (C) 4.2 02:21:26 12° WSW 02:24:24 36° NW 02:27:59 10° NNE
CZ-4C R/B 2.9 02:21:29 10° SSE 02:24:56 88° WSW 02:28:26 10° NNW
ERBS 2.5 02:24:39 15° SSW 02:27:06 54° SE 02:30:17 10° ENE
Helios 1B rocket 3.9 02:23:58 10° N 02:27:18 25° WNW 02:30:26 11° WSW
Cosmos 1328 Rocket 3.5 02:26:50 10° N 02:31:13 80° W 02:35:35 10° S
NOSS 3-2 (A) 4.4 02:24:22 10° NW 02:31:51 75° NE 02:40:22 10° SE
FALCON 9 DEB 2.7 02:29:40 10° WNW 02:32:44 66° SW 02:35:46 10° SE
ATLAS 5 CENTAUR R/B 2.5 02:29:38 10° WSW 02:33:24 37° NW 02:37:39 10° NNE
USA 308 3.5 02:29:57 10° WSW 02:34:07 54° NNW 02:38:18 10° NE
Spot 1 4.4 02:30:38 10° SSE 02:35:43 80° WSW 02:40:37 10° NNW
SeaSat 1 2.8 02:31:02 10° NNE 02:35:57 65° ESE 02:40:51 10° SSW
FALCON 9 DEB 2.7 02:36:31 10° WNW 02:39:37 74° SSW 02:42:43 10° SE
Meteor 2-6 Rocket 4.4 02:34:12 10° N 02:40:09 87° ENE 02:45:54 10° S
ADEOS Rocket 3.8 02:33:52 10° SSW 02:40:41 42° W 02:46:58 10° NNW
FALCON 9 DEB 2.8 02:39:57 10° WNW 02:43:00 57° SW 02:46:01 10° SE
Cosmos 1833 Rocket 3.7 02:42:22 10° S 02:47:39 43° ESE 02:52:59 10° NE
SL-16 R/B 4.0 02:45:13 10° SW 02:49:23 19° W 02:53:34 10° NW
Meteor 1-28 Rocket 4.3 02:46:10 10° SSW 02:49:24 27° W 02:52:41 10° NW
IRS-P3 4.2 02:45:58 10° NNE 02:51:20 87° WNW 02:56:39 10° SSW
Tianhe-1 3.4 02:50:20 10° S 02:51:58 13° SSE 02:53:37 10° ESE
USA 305 3.9 02:47:58 10° W 02:52:03 43° NNW 02:56:08 10° NE
Lacrosse 4 Rocket 3.1 02:51:16 10° WNW 02:53:23 14° WSW 02:55:30 10° SW
Cosmos 1125 Rocket 4.2 02:48:49 10° NW 02:53:34 36° WSW 02:58:20 10° SSW
Cosmos 1151 Rocket 3.8 02:50:53 10° NNW 02:54:45 34° W 02:58:35 10° SSW
Cosmos 883 Rocket 4.5 02:48:58 10° N 02:55:07 80° W 03:01:13 10° S
Cosmos 2266 Rocket 4.0 02:50:35 10° SSW 02:56:40 71° W 03:02:43 10° N
CZ-4B R/B 3.7 02:53:48 10° NNE 02:59:07 85° ESE 03:04:19 10° SSW
Resurs 1-4 Rocket 4.1 02:57:06 10° NNW 03:00:11 16° NW 03:03:16 10° W
ARIANE 5 R/B 2.5 02:55:14 10° NNE 03:00:16 89° W 03:05:17 10° SSW
